Wind_Speed
36 36 35 36 37 36 36 36 35 34 33 31 28 25 21 21 21 21 20 20 22 23 22 21 21 20 19 19 18 19 20 20 20 19 18 16 15 13 12 11 10 11 12 14
36 36 36 36 35 35 34 33 33 33 31 30 27 24 22 22 22 22 21 22 23 24 22 21 21 21 20 20 19 20 20 20 20 20 19 18 18 16 14 13 13 13 14 16
37 36 36 36 35 34 34 32 30 29 29 28 26 23 21 23 23 23 23 23 24 24 23 23 23 21 21 21 21 21 21 21 21 20 19 19 20 19 17 17 17 16 16 18
33 34 35 35 34 34 32 31 30 29 28 27 26 24 19 23 24 23 22 24 25 25 25 25 24 22 22 22 22 22 22 22 22 21 20 21 21 21 21 20 19 18 19 20
26 28 31 31 30 31 32 31 30 29 30 28 26 26 21 23 25 24 23 24 25 26 27 27 26 24 23 23 23 22 22 22 23 23 23 22 22 22 22 22 21 21 20 21
24 25 26 25 25 27 29 30 31 31 30 27 24 26 25 24 25 24 24 25 26 27 27 28 27 25 24 24 23 22 22 22 23 24 24 24 24 23 22 23 23 23 22 21
23 23 23 22 23 24 25 26 27 27 26 25 25 25 26 26 25 26 27 26 27 27 27 27 27 26 25 24 23 23 23 23 23 23 24 23 22 21 21 21 22 23 23 23
24 24 23 23 24 23 23 24 25 25 24 23 23 24 25 25 25 26 27 27 27 26 26 26 25 25 25 26 25 24 23 23 22 21 20 20 19 19 19 19 20 21 22 23
27 27 27 27 27 27 26 26 25 26 26 25 25 25 26 26 26 27 28 28 27 26 25 25 24 25 26 26 26 24 23 22 19 18 17 17 17 17 17 18 19 20 21 22
25 27 27 29 29 29 28 28 28 29 30 30 29 28 28 27 27 28 29 29 28 27 25 24 24 24 26 26 25 24 22 21 19 17 15 15 15 16 17 18 18 19 20 20
23 24 23 26 30 30 29 29 29 31 32 33 32 29 28 26 25 26 27 27 26 25 23 23 23 24 25 26 25 23 21 20 18 16 15 14 14 15 16 17 18 18 19 20
25 25 23 23 27 29 29 29 29 31 32 32 31 29 25 24 23 24 26 27 25 24 23 23 24 25 26 26 25 23 22 21 19 18 16 16 15 16 17 18 19 20 20 20
28 28 25 22 24 26 27 28 29 30 31 30 29 26 24 23 23 24 26 27 26 25 24 23 25 27 28 27 26 24 23 22 21 20 19 18 18 18 19 20 20 21 21 22
29 30 27 23 23 24 25 26 28 30 30 31 29 27 26 25 25 25 26 26 26 25 24 25 26 28 29 28 26 24 22 21 20 20 21 21 21 21 21 21 21 21 21 21
29 30 30 28 26 26 27 27 28 29 29 32 30 29 26 27 27 27 27 25 25 25 26 27 28 28 28 26 24 22 20 19 19 21 22 22 22 22 22 22 22 21 21 21
28 30 31 29 27 28 27 26 27 29 30 30 30 27 25 26 27 28 27 26 26 27 28 27 27 27 25 23 21 19 19 20 21 23 24 24 24 24 24 24 23 23 22 22
26 27 28 28 26 25 24 22 23 24 24 27 27 24 24 26 27 28 28 27 27 26 25 24 22 21 20 19 19 20 22 24 25 26 26 26 25 25 25 25 24 24 24 23
24 25 25 25 24 22 19 20 20 20 21 24 25 24 23 23 23 24 24 23 22 20 18 17 17 17 18 19 21 24 25 26 26 26 26 26 25 25 25 26 25 25 25 25
24 24 25 24 22 19 18 19 18 18 18 18 17 15 13 12 13 13 14 14 13 12 12 14 15 17 19 21 23 25 25 26 25 25 25 25 25 25 25 26 26 26 26 26
24 23 24 23 20 17 16 16 15 14 12 9 6 4 3 2 3 4 6 7 8 10 12 14 16 18 20 21 22 23 23 23 23 24 24 25 26 26 27 27 28 28 28 28
25 24 22 20 18 17 15 14 13 12 9 9 8 7 6 5 3 3 4 6 8 10 12 14 16 18 19 19 20 20 21 22 23 24 25 26 27 27 28 29 30 30 30 30
24 24 21 19 17 17 16 17 16 14 13 12 9 8 7 6 4 3 5 7 9 11 14 15 16 17 17 18 18 19 20 21 22 23 23 24 25 26 27 28 29 30 30 30
23 22 21 20 20 18 19 22 20 17 15 13 10 8 7 5 3 2 4 7 10 13 15 15 15 16 16 17 17 18 19 20 20 20 20 21 22 23 25 26 28 29 29 29
24 25 25 24 24 22 22 25 23 20 17 13 10 8 6 4 2 2 4 8 11 13 14 14 14 15 15 16 17 18 18 18 18 18 18 19 19 20 21 23 24 25 26 27
26 29 28 26 25 25 26 27 26 22 17 13 11 9 7 5 3 2 5 9 11 13 14 14 14 14 15 17 17 17 16 16 16 16 16 16 16 17 17 16 16 17 19 20
26 30 30 29 27 26 27 29 26 22 18 14 11 9 8 6 5 4 6 9 11 13 14 13 14 14 16 17 16 15 15 15 15 15 15 14 14 14 14 12 9 7 7 10
Wind_Direction
241 243 247 252 255 258 259 260 259 261 263 268 272 272 272 272 273 277 281 279 280 282 282 282 284 286 291 298 303 306 307 303 297 296 294 293 292 289 287 286 279 268 253 245
243 247 251 256 260 262 265 266 265 265 264 266 269 269 269 269 272 277 279 277 278 280 281 282 283 286 292 297 300 303 303 298 292 290 288 287 286 288 283 286 283 275 262 254
248 251 255 258 261 265 267 266 266 265 265 266 266 264 265 267 271 276 276 274 275 278 280 282 284 287 291 295 297 299 298 295 289 285 282 282 282 283 280 278 274 272 263 257
253 254 257 259 260 261 261 262 264 263 266 265 266 265 259 266 271 275 272 269 271 275 279 282 284 286 290 292 294 295 295 291 286 282 280 279 276 277 275 271 270 269 263 259
265 260 258 260 260 260 259 259 259 260 265 266 264 264 260 265 270 271 268 266 268 273 277 279 281 284 289 291 292 293 292 289 284 280 279 277 274 272 269 266 266 266 264 261
260 264 263 260 256 254 254 255 255 258 261 262 261 264 266 264 266 267 265 264 266 270 275 277 281 286 290 293 292 291 289 286 283 280 278 276 272 268 264 263 263 264 263 262
247 252 256 256 253 253 253 253 254 256 258 260 261 263 266 265 263 265 266 266 268 271 276 279 283 289 293 297 296 292 288 286 283 279 276 273 269 265 262 261 262 263 262 261
239 237 240 240 244 247 252 255 258 261 261 260 259 261 264 265 265 266 268 269 271 275 279 283 288 294 299 302 302 296 290 287 283 279 275 271 268 266 264 263 263 263 264 262
247 239 239 236 236 241 245 249 255 260 261 260 259 260 263 266 267 267 269 271 274 279 284 287 292 299 303 304 303 297 290 285 283 280 277 274 271 270 268 268 267 266 265 265
258 249 244 244 243 244 246 250 253 255 258 259 258 259 265 267 269 268 270 273 277 281 283 288 293 298 301 302 301 296 287 283 282 283 284 282 279 276 273 271 270 269 268 267
257 254 244 243 245 247 250 252 255 258 259 261 263 264 267 272 273 273 275 277 281 282 282 287 292 296 298 298 297 292 285 280 279 281 284 287 286 283 280 278 275 273 271 270
253 254 250 241 244 248 250 254 256 257 258 261 264 265 270 274 274 274 276 279 281 281 281 286 292 295 296 297 295 290 283 277 275 276 279 284 287 287 285 283 280 277 273 269
252 254 255 247 243 246 250 253 257 260 261 262 264 269 274 273 270 270 272 274 276 279 280 283 289 293 295 296 294 289 283 276 273 273 276 280 283 285 285 284 282 279 275 270
252 252 256 255 249 249 253 257 261 266 269 270 271 272 271 273 272 269 268 270 274 276 277 280 286 289 293 295 293 288 285 280 276 275 278 280 281 281 281 281 281 278 275 271
252 252 254 257 258 255 255 259 264 268 269 270 270 270 271 272 271 269 269 271 272 274 276 280 285 288 292 292 290 288 287 286 285 285 285 284 282 279 278 277 277 276 273 270
254 253 253 254 257 256 258 262 263 262 265 270 273 274 274 268 266 267 268 271 273 276 279 280 283 285 288 288 286 286 288 293 294 293 292 289 286 281 278 275 274 273 270 268
254 254 254 252 253 257 262 262 261 264 271 276 279 280 275 269 268 267 269 271 275 278 278 279 280 283 284 284 283 285 290 293 294 293 292 290 287 282 279 276 275 272 269 266
251 253 256 255 251 255 261 261 264 272 277 279 283 283 279 275 270 267 267 269 271 274 275 277 281 283 285 284 286 288 291 293 293 292 290 288 285 282 278 276 274 271 268 265
249 250 253 255 254 253 255 260 269 276 277 278 280 279 275 272 267 262 259 261 264 268 274 279 283 285 286 287 290 292 294 295 295 294 292 289 286 282 278 275 273 270 269 266
239 244 249 252 252 248 250 260 268 269 256 250 236 219 204 211 235 240 246 255 264 273 281 286 289 290 291 292 294 294 296 297 297 296 294 292 288 284 280 276 273 272 269 266
230 235 242 246 244 241 243 246 246 225 198 180 166 158 151 154 181 224 253 270 282 291 296 298 298 298 298 299 299 300 301 301 300 298 295 292 288 285 281 277 274 271 268 265
226 230 234 238 236 234 231 223 214 200 188 179 176 177 173 172 187 230 274 297 308 310 309 308 306 305 305 306 307 308 307 306 305 302 299 295 291 287 283 279 275 271 267 263
219 219 222 224 223 221 215 207 202 197 192 189 190 193 192 192 199 259 306 317 318 317 316 314 312 311 312 314 315 314 313 312 310 308 304 301 296 291 286 282 276 271 266 260
220 215 216 218 217 215 205 203 202 199 197 196 198 201 206 212 228 300 320 321 321 321 321 320 319 319 320 321 321 319 318 317 318 316 313 311 307 301 296 288 280 270 263 257
227 219 218 217 215 210 203 202 201 201 201 200 202 210 217 222 240 288 320 324 325 327 327 325 323 323 325 326 325 323 323 325 326 327 325 323 320 317 312 303 290 275 262 255
231 224 220 218 219 215 208 206 203 204 204 205 209 218 224 231 250 287 318 328 330 331 330 327 325 326 327 328 329 329 331 334 334 333 332 333 335 338 338 333 321 295 260 241
Height
5835 5839 5840 5841 5842 5843 5844 5845 5847 5848 5848 5850 5851 5853 5854 5854 5853 5853 5853 5852 5851 5850 5849 5848 5848 5846 5845 5843 5841 5839 5837 5835 5834 5833 5832 5831 5830 5829 5829 5828 5828 5828 5828 5829
5831 5833 5834 5835 5837 5838 5839 5839 5840 5841 5842 5844 5845 5847 5848 5848 5848 5848 5847 5846 5845 5844 5844 5843 5843 5841 5839 5837 5836 5834 5832 5831 5830 5829 5828 5827 5826 5826 5825 5825 5825 5824 5824 5825
5825 5827 5827 5829 5831 5832 5833 5834 5835 5836 5837 5838 5840 5842 5844 5843 5843 5843 5842 5841 5839 5839 5838 5838 5837 5835 5834 5832 5830 5829 5827 5826 5825 5824 5824 5823 5822 5821 5821 5821 5820 5820 5821 5821
5819 5820 5822 5823 5825 5826 5828 5828 5829 5830 5831 5833 5835 5836 5839 5838 5838 5837 5836 5835 5834 5833 5833 5832 5831 5830 5828 5826 5825 5823 5821 5820 5819 5819 5819 5818 5817 5817 5816 5816 5816 5816 5816 5816
5812 5814 5815 5817 5819 5820 5821 5822 5823 5824 5826 5828 5829 5830 5835 5833 5833 5832 5831 5830 5829 5828 5828 5826 5825 5824 5822 5820 5819 5817 5815 5814 5813 5812 5812 5812 5811 5811 5811 5810 5810 5810 5810 5810
5807 5808 5810 5811 5812 5813 5815 5816 5817 5818 5820 5823 5824 5825 5828 5827 5827 5826 5825 5825 5824 5823 5823 5821 5819 5818 5816 5814 5813 5811 5809 5808 5806 5806 5805 5805 5805 5804 5804 5805 5805 5804 5804 5804
5801 5802 5804 5806 5807 5808 5809 5810 5811 5812 5814 5817 5818 5820 5822 5821 5821 5820 5820 5819 5818 5818 5817 5815 5814 5812 5810 5809 5807 5805 5803 5801 5800 5799 5798 5798 5798 5798 5798 5798 5798 5798 5798 5799
5796 5798 5798 5799 5801 5802 5803 5805 5807 5808 5809 5811 5812 5813 5815 5815 5815 5815 5814 5814 5813 5813 5812 5810 5808 5807 5805 5803 5801 5799 5797 5795 5794 5792 5792 5791 5791 5791 5791 5792 5792 5792 5792 5792
5791 5793 5793 5793 5794 5796 5798 5799 5801 5803 5803 5804 5806 5808 5809 5809 5809 5809 5809 5808 5808 5807 5806 5804 5803 5802 5800 5797 5795 5793 5791 5790 5788 5787 5786 5786 5786 5786 5785 5786 5786 5786 5786 5786
5785 5788 5789 5788 5789 5790 5793 5794 5795 5796 5797 5798 5800 5801 5803 5803 5803 5803 5803 5802 5802 5801 5800 5799 5798 5796 5794 5792 5790 5788 5786 5785 5784 5783 5782 5781 5781 5780 5780 5780 5780 5781 5781 5781
5780 5781 5783 5784 5784 5786 5788 5789 5790 5790 5791 5791 5793 5797 5796 5797 5797 5797 5796 5796 5796 5795 5794 5793 5792 5790 5789 5787 5785 5783 5782 5780 5779 5778 5777 5776 5776 5775 5775 5775 5775 5775 5775 5775
5774 5775 5775 5778 5779 5780 5781 5783 5784 5784 5784 5784 5786 5792 5790 5791 5791 5791 5790 5790 5789 5789 5788 5787 5786 5784 5782 5781 5779 5778 5777 5776 5775 5774 5773 5772 5771 5770 5770 5770 5769 5770 5770 5770
5768 5769 5769 5771 5775 5775 5775 5776 5776 5776 5777 5778 5780 5786 5784 5785 5785 5785 5784 5783 5783 5783 5783 5782 5780 5778 5776 5775 5773 5772 5771 5770 5769 5768 5767 5766 5766 5765 5765 5764 5764 5764 5764 5764
5761 5761 5763 5765 5766 5767 5769 5770 5770 5771 5771 5772 5774 5777 5778 5777 5777 5778 5777 5777 5777 5777 5777 5776 5774 5772 5770 5769 5767 5766 5764 5764 5763 5762 5761 5760 5760 5759 5758 5758 5757 5757 5758 5758
5753 5754 5756 5758 5760 5761 5763 5764 5765 5765 5765 5766 5767 5769 5771 5770 5770 5770 5770 5770 5771 5771 5770 5769 5767 5766 5764 5762 5761 5760 5758 5758 5757 5756 5755 5754 5753 5752 5751 5751 5751 5751 5751 5752
5745 5747 5749 5752 5754 5754 5756 5758 5758 5758 5758 5759 5760 5762 5763 5762 5762 5762 5763 5763 5764 5764 5763 5762 5761 5759 5758 5757 5756 5754 5753 5752 5751 5749 5748 5747 5746 5745 5744 5744 5744 5744 5745 5745
5738 5740 5742 5744 5747 5748 5750 5751 5751 5752 5754 5754 5753 5755 5754 5754 5754 5754 5755 5756 5756 5756 5756 5755 5754 5753 5752 5751 5750 5749 5748 5746 5745 5743 5741 5739 5738 5737 5737 5736 5737 5737 5738 5738
5731 5733 5735 5737 5741 5743 5747 5745 5746 5748 5748 5747 5746 5746 5745 5745 5745 5746 5747 5749 5749 5749 5749 5749 5749 5748 5747 5746 5745 5743 5741 5739 5738 5735 5733 5731 5730 5729 5729 5729 5729 5729 5730 5731
5724 5726 5728 5731 5734 5738 5740 5740 5741 5742 5742 5741 5740 5739 5738 5738 5739 5741 5742 5743 5744 5745 5745 5745 5745 5744 5742 5741 5739 5737 5734 5732 5730 5728 5726 5724 5723 5722 5721 5721 5721 5721 5722 5723
5717 5720 5723 5726 5729 5732 5735 5736 5736 5738 5737 5736 5735 5734 5734 5735 5737 5739 5739 5740 5741 5742 5742 5741 5740 5738 5737 5735 5733 5730 5728 5726 5723 5721 5719 5717 5715 5714 5713 5713 5713 5713 5714 5715
5710 5713 5717 5720 5723 5727 5730 5731 5733 5734 5734 5733 5732 5732 5732 5733 5736 5737 5738 5738 5739 5739 5738 5736 5735 5733 5731 5729 5727 5725 5722 5720 5717 5714 5712 5709 5707 5705 5704 5704 5703 5704 5704 5706
5704 5708 5712 5716 5719 5724 5724 5726 5729 5730 5730 5730 5731 5731 5731 5731 5733 5734 5735 5736 5736 5735 5734 5732 5730 5728 5726 5724 5722 5719 5717 5714 5711 5708 5705 5702 5700 5697 5695 5694 5693 5694 5694 5695
5699 5703 5706 5710 5715 5717 5718 5721 5724 5726 5728 5729 5730 5731 5731 5731 5731 5732 5732 5733 5732 5731 5730 5728 5726 5725 5722 5720 5717 5715 5712 5708 5705 5702 5699 5696 5693 5690 5687 5685 5684 5683 5684 5685
5693 5695 5699 5703 5707 5711 5714 5717 5721 5724 5726 5727 5729 5730 5731 5731 5731 5730 5730 5730 5730 5729 5727 5725 5723 5721 5719 5716 5713 5710 5707 5704 5701 5697 5694 5690 5687 5684 5680 5677 5675 5673 5674 5675
5686 5689 5693 5698 5703 5707 5711 5715 5719 5722 5724 5726 5728 5730 5731 5731 5730 5729 5729 5728 5727 5726 5724 5722 5720 5718 5716 5713 5710 5707 5704 5700 5697 5694 5690 5687 5683 5679 5674 5670 5667 5665 5666 5667
5681 5685 5690 5695 5699 5704 5708 5712 5716 5720 5723 5725 5727 5728 5729 5730 5729 5728 5728 5727 5726 5724 5722 5720 5718 5716 5713 5710 5707 5704 5701 5698 5695 5692 5688 5685 5681 5676 5671 5667 5664 5662 5662 5663